Time,TemperatureF,DewpointF,PressureIn,WindDirection,WindDirectionDegrees,WindSpeedMPH,WindSpeedGustMPH,Humidity,HourlyPrecipIn,Conditions,Clouds,dailyrainin,SoftwareType,DateUTC
2013-03-02 00:00:00,31.8,25.4,29.81,North,351,0.0,0.0,77,0.00,OVC,OVC,0.00,WeatherDisplay:10.34,2013-03-02 05:00:00,
2013-03-02 00:01:00,31.8,25.4,29.81,North,351,0.0,0.0,77,0.00,SCT,SCT,0.00,WeatherDisplay:10.34,2013-03-02 05:01:00,
2013-03-02 00:06:00,31.8,25.4,29.81,NNW,347,0.0,3.0,77,0.00,SCT,SCT,0.00,WeatherDisplay:10.34,2013-03-02 05:06:00,
2013-03-02 00:07:00,31.8,25.4,29.81,NNW,347,0.0,2.0,77,0.00,SCT,SCT,0.00,WeatherDisplay:10.34,2013-03-02 05:07:00,
2013-03-02 00:12:00,31.6,25.3,29.81,North,351,0.0,0.0,77,0.00,SCT,SCT,0.00,WeatherDisplay:10.34,2013-03-02 05:12:00,
2013-03-02 00:17:00,31.6,25.3,29.81,North,351,0.0,3.0,77,0.00,SCT,SCT,0.00,WeatherDisplay:10.34,2013-03-02 05:17:00,
2013-03-02 00:22:00,31.6,25.3,29.81,North,351,0.0,0.0,77,0.00,SCT,SCT,0.00,WeatherDisplay:10.34,2013-03-02 05:22:00,
2013-03-02 00:27:00,31.5,25.1,29.81,North,351,0.0,0.0,77,0.00,SCT,SCT,0.00,WeatherDisplay:10.34,2013-03-02 05:27:00,
2013-03-02 00:32:00,31.5,25.1,29.81,North,351,0.0,0.0,77,0.00,SCT,SCT,0.00,WeatherDisplay:10.34,2013-03-02 05:32:00,
2013-03-02 00:37:00,31.5,24.8,29.81,North,351,0.0,0.0,76,0.00,SCT,SCT,0.00,WeatherDisplay:10.34,2013-03-02 05:37:00,
2013-03-02 00:42:00,31.5,24.8,29.81,NNW,347,0.0,0.0,76,0.00,SCT,SCT,0.00,WeatherDisplay:10.34,2013-03-02 05:42:00,
2013-03-02 00:47:00,31.5,24.8,29.81,North,351,0.0,0.0,76,0.00,SCT,SCT,0.00,WeatherDisplay:10.34,2013-03-02 05:47:00,
2013-03-02 00:52:00,31.6,24.9,29.81,North,351,0.0,0.0,76,0.00,SCT,SCT,0.00,WeatherDisplay:10.34,2013-03-02 05:52:00,
2013-03-02 00:57:00,31.5,24.8,29.81,North,351,0.0,3.0,76,0.00,SCT,SCT,0.00,WeatherDisplay:10.34,2013-03-02 05:57:00,
2013-03-02 00:59:00,31.5,24.8,29.81,North,351,0.0,3.0,76,0.00,SCT,SCT,0.00,WeatherDisplay:10.34,2013-03-02 05:59:00,
2013-03-02 01:04:00,31.3,24.3,29.81,North,351,0.0,0.0,75,0.00,FEW,FEW,0.00,WeatherDisplay:10.34,2013-03-02 06:04:00,
2013-03-02 01:09:00,31.5,24.4,29.81,North,351,0.0,3.0,75,0.00,FEW,FEW,0.00,WeatherDisplay:10.34,2013-03-02 06:09:00,
2013-03-02 01:14:00,31.5,24.4,29.81,North,351,0.0,0.0,75,0.00,FEW,FEW,0.00,WeatherDisplay:10.34,2013-03-02 06:14:00,
2013-03-02 01:19:00,31.3,24.0,29.81,North,351,0.0,2.0,74,0.00,FEW,FEW,0.00,WeatherDisplay:10.34,2013-03-02 06:19:00,
2013-03-02 01:24:00,31.3,24.0,29.81,North,351,0.0,0.0,74,0.00,FEW,FEW,0.00,WeatherDisplay:10.34,2013-03-02 06:24:00,
2013-03-02 01:29:00,31.5,24.1,29.81,North,351,0.0,0.0,74,0.00,FEW,FEW,0.00,WeatherDisplay:10.34,2013-03-02 06:29:00,
2013-03-02 01:34:00,31.5,24.1,29.81,North,351,0.0,0.0,74,0.00,FEW,FEW,0.00,WeatherDisplay:10.34,2013-03-02 06:34:00,
2013-03-02 01:39:00,31.5,24.1,29.81,North,351,0.0,2.0,74,0.00,FEW,FEW,0.00,WeatherDisplay:10.34,2013-03-02 06:39:00,
2013-03-02 01:44:00,31.3,24.0,29.81,North,351,3.0,3.0,74,0.00,FEW,FEW,0.00,WeatherDisplay:10.34,2013-03-02 06:44:00,
2013-03-02 01:49:00,31.3,23.6,29.81,WSW,242,3.0,6.0,73,0.00,FEW,FEW,0.00,WeatherDisplay:10.34,2013-03-02 06:49:00,
2013-03-02 01:54:00,31.3,23.6,29.81,WSW,242,0.0,0.0,73,0.00,FEW,FEW,0.00,WeatherDisplay:10.34,2013-03-02 06:54:00,
2013-03-02 01:59:00,31.3,23.6,29.81,WSW,242,0.0,0.0,73,0.00,FEW,FEW,0.00,WeatherDisplay:10.34,2013-03-02 06:59:00,
2013-03-02 02:04:00,31.3,23.6,29.81,NNW,339,0.0,6.0,73,0.00,CLR,CLR,0.00,WeatherDisplay:10.34,2013-03-02 07:04:00,
2013-03-02 02:09:00,31.3,23.6,29.81,NNW,340,0.0,5.0,73,0.00,CLR,CLR,0.00,WeatherDisplay:10.34,2013-03-02 07:09:00,
2013-03-02 02:14:00,31.3,23.6,29.81,NNW,340,0.0,0.0,73,0.00,CLR,CLR,0.00,WeatherDisplay:10.34,2013-03-02 07:14:00,
2013-03-02 02:19:00,31.3,23.3,29.81,NNW,340,0.0,3.0,72,0.00,CLR,CLR,0.00,WeatherDisplay:10.34,2013-03-02 07:19:00,
2013-03-02 02:25:00,31.3,23.3,29.81,NNW,340,0.0,0.0,72,0.00,CLR,CLR,0.00,WeatherDisplay:10.34,2013-03-02 07:25:00,
2013-03-02 02:30:00,31.3,23.3,29.81,NNW,340,0.0,0.0,72,0.00,CLR,CLR,0.00,WeatherDisplay:10.34,2013-03-02 07:30:00,
2013-03-02 02:35:00,31.3,23.3,29.81,NNW,340,0.0,0.0,72,0.00,CLR,CLR,0.00,WeatherDisplay:10.34,2013-03-02 07:35:00,
2013-03-02 02:40:00,31.3,23.3,29.81,NNW,340,0.0,0.0,72,0.00,CLR,CLR,0.00,WeatherDisplay:10.34,2013-03-02 07:40:00,
2013-03-02 02:45:00,31.3,23.3,29.81,NNW,340,0.0,2.0,72,0.00,CLR,CLR,0.00,WeatherDisplay:10.34,2013-03-02 07:45:00,
2013-03-02 02:50:00,31.3,23.3,29.81,NNW,340,0.0,0.0,72,0.00,CLR,CLR,0.00,WeatherDisplay:10.34,2013-03-02 07:50:00,
2013-03-02 02:55:00,31.3,23.6,29.81,NNW,340,0.0,0.0,73,0.00,CLR,CLR,0.00,WeatherDisplay:10.34,2013-03-02 07:55:00,
2013-03-02 03:00:00,31.3,23.6,29.81,NNW,340,0.0,0.0,73,0.00,CLR,CLR,0.00,WeatherDisplay:10.34,2013-03-02 08:00:00,
2013-03-02 03:06:00,31.1,23.5,29.81,NNW,340,0.0,0.0,73,0.00,SCT,SCT,0.00,WeatherDisplay:10.34,2013-03-02 08:06:00,
2013-03-02 03:11:00,31.1,23.5,29.81,NNW,340,0.0,0.0,73,0.00,SCT,SCT,0.00,WeatherDisplay:10.34,2013-03-02 08:11:00,
2013-03-02 03:16:00,30.9,23.3,29.81,NNW,340,0.0,0.0,73,0.00,SCT,SCT,0.00,WeatherDisplay:10.34,2013-03-02 08:16:00,
2013-03-02 03:22:00,30.7,23.1,29.81,NNW,340,0.0,0.0,73,0.00,SCT,SCT,0.00,WeatherDisplay:10.34,2013-03-02 08:22:00,
2013-03-02 03:27:00,30.7,23.1,29.81,NNW,340,0.0,0.0,73,0.00,SCT,SCT,0.00,WeatherDisplay:10.34,2013-03-02 08:27:00,
2013-03-02 03:33:00,30.6,23.3,29.81,NNW,340,0.0,0.0,74,0.00,SCT,SCT,0.00,WeatherDisplay:10.34,2013-03-02 08:33:00,
2013-03-02 03:39:00,30.4,23.1,29.81,NNW,340,0.0,0.0,74,0.00,SCT,SCT,0.00,WeatherDisplay:10.34,2013-03-02 08:39:00,
2013-03-02 03:44:00,30.4,23.1,29.81,NNW,340,0.0,0.0,74,0.00,SCT,SCT,0.00,WeatherDisplay:10.34,2013-03-02 08:44:00,
2013-03-02 03:49:00,30.4,23.1,29.81,NNW,340,0.0,0.0,74,0.00,SCT,SCT,0.00,WeatherDisplay:10.34,2013-03-02 08:49:00,
2013-03-02 03:54:00,30.4,23.1,29.81,NNW,340,0.0,0.0,74,0.00,SCT,SCT,0.00,WeatherDisplay:10.34,2013-03-02 08:54:00,
2013-03-02 04:02:00,30.2,23.2,29.81,NNW,340,0.0,0.0,75,0.00,CLR,CLR,0.00,WeatherDisplay:10.34,2013-03-02 09:02:00,
2013-03-02 04:08:00,30.2,23.2,29.81,NNW,340,0.0,0.0,75,0.00,CLR,CLR,0.00,WeatherDisplay:10.34,2013-03-02 09:08:00,
2013-03-02 04:13:00,30.0,23.1,29.81,NNW,340,0.0,0.0,75,0.00,CLR,CLR,0.00,WeatherDisplay:10.34,2013-03-02 09:13:00,
2013-03-02 04:18:00,30.0,23.1,29.81,NNW,340,0.0,0.0,75,0.00,CLR,CLR,0.00,WeatherDisplay:10.34,2013-03-02 09:18:00,
2013-03-02 04:23:00,30.0,23.4,29.81,NNW,340,0.0,0.0,76,0.00,CLR,CLR,0.00,WeatherDisplay:10.34,2013-03-02 09:23:00,
2013-03-02 04:29:00,30.0,23.4,29.81,NNW,340,0.0,0.0,76,0.00,CLR,CLR,0.00,WeatherDisplay:10.34,2013-03-02 09:29:00,
2013-03-02 04:34:00,30.0,23.4,29.81,NNW,340,0.0,0.0,76,0.00,CLR,CLR,0.00,WeatherDisplay:10.34,2013-03-02 09:34:00,
2013-03-02 04:41:00,29.8,23.2,29.81,NNW,340,0.0,0.0,76,0.00,CLR,CLR,0.00,WeatherDisplay:10.34,2013-03-02 09:41:00,
2013-03-02 04:47:00,29.8,23.2,29.81,NNW,340,0.0,0.0,76,0.00,CLR,CLR,0.00,WeatherDisplay:10.34,2013-03-02 09:47:00,
2013-03-02 04:52:00,30.0,23.4,29.81,NNW,340,0.0,0.0,76,0.00,CLR,CLR,0.00,WeatherDisplay:10.34,2013-03-02 09:52:00,
2013-03-02 04:58:00,30.0,23.7,29.81,NNW,340,0.0,0.0,77,0.00,CLR,CLR,0.00,WeatherDisplay:10.34,2013-03-02 09:58:00,
2013-03-02 05:04:00,30.2,23.9,29.81,NNW,340,0.0,0.0,77,0.00,CLR,CLR,0.00,WeatherDisplay:10.34,2013-03-02 10:04:00,
2013-03-02 05:09:00,30.2,23.9,29.81,NNW,340,0.0,0.0,77,0.00,CLR,CLR,0.00,WeatherDisplay:10.34,2013-03-02 10:09:00,
2013-03-02 05:15:00,30.2,23.9,29.81,NNW,340,0.0,0.0,77,0.00,CLR,CLR,0.00,WeatherDisplay:10.34,2013-03-02 10:15:00,
2013-03-02 05:21:00,30.2,23.9,29.81,NNW,340,0.0,0.0,77,0.00,CLR,CLR,0.00,WeatherDisplay:10.34,2013-03-02 10:21:00,
2013-03-02 05:26:00,30.2,23.9,29.81,NNW,340,0.0,0.0,77,0.00,CLR,CLR,0.00,WeatherDisplay:10.34,2013-03-02 10:26:00,
2013-03-02 05:31:00,30.0,23.7,29.81,NNW,340,0.0,0.0,77,0.00,CLR,CLR,0.00,WeatherDisplay:10.34,2013-03-02 10:31:00,
2013-03-02 05:36:00,30.2,23.9,29.81,NNW,340,0.0,0.0,77,0.00,CLR,CLR,0.00,WeatherDisplay:10.34,2013-03-02 10:36:00,
2013-03-02 05:41:00,30.2,23.9,29.81,NNW,340,0.0,0.0,77,0.00,CLR,CLR,0.00,WeatherDisplay:10.34,2013-03-02 10:41:00,
2013-03-02 05:47:00,30.0,23.7,29.81,NNW,340,0.0,0.0,77,0.00,CLR,CLR,0.00,WeatherDisplay:10.34,2013-03-02 10:47:00,
2013-03-02 05:52:00,30.0,24.0,29.81,NNW,340,0.0,0.0,78,0.00,CLR,CLR,0.00,WeatherDisplay:10.34,2013-03-02 10:52:00,
2013-03-02 05:57:00,30.0,24.0,29.81,NNW,340,0.0,0.0,78,0.00,CLR,CLR,0.00,WeatherDisplay:10.34,2013-03-02 10:57:00,
2013-03-02 06:03:00,29.8,23.5,29.81,NNW,340,0.0,0.0,77,0.00,SCT,SCT,0.00,WeatherDisplay:10.34,2013-03-02 11:03:00,
2013-03-02 06:09:00,29.8,23.5,29.81,NNW,340,0.0,0.0,77,0.00,SCT,SCT,0.00,WeatherDisplay:10.34,2013-03-02 11:09:00,
2013-03-02 06:14:00,29.7,23.3,29.81,NNW,340,0.0,0.0,77,0.00,SCT,SCT,0.00,WeatherDisplay:10.34,2013-03-02 11:14:00,
2013-03-02 06:19:00,29.7,23.3,29.81,NNW,340,0.0,0.0,77,0.00,SCT,SCT,0.00,WeatherDisplay:10.34,2013-03-02 11:19:00,
2013-03-02 06:25:00,29.7,23.3,29.81,NNW,340,0.0,0.0,77,0.00,SCT,SCT,0.00,WeatherDisplay:10.34,2013-03-02 11:25:00,
2013-03-02 06:32:00,29.7,23.3,29.81,NNW,340,0.0,0.0,77,0.00,SCT,SCT,0.00,WeatherDisplay:10.34,2013-03-02 11:32:00,
2013-03-02 06:37:00,29.7,23.3,29.81,NNW,340,0.0,0.0,77,0.00,SCT,SCT,0.00,WeatherDisplay:10.34,2013-03-02 11:37:00,
2013-03-02 06:42:00,29.7,23.6,29.81,NNW,340,0.0,0.0,78,0.00,SCT,SCT,0.00,WeatherDisplay:10.34,2013-03-02 11:42:00,
2013-03-02 06:47:00,29.8,23.8,29.82,NNW,340,0.0,0.0,78,0.00,SCT,SCT,0.00,WeatherDisplay:10.34,2013-03-02 11:47:00,
2013-03-02 06:52:00,29.8,23.8,29.81,NNW,340,0.0,0.0,78,0.00,SCT,SCT,0.00,WeatherDisplay:10.34,2013-03-02 11:52:00,
2013-03-02 06:57:00,30.0,24.0,29.81,NNW,340,0.0,0.0,78,0.00,SCT,SCT,0.00,WeatherDisplay:10.34,2013-03-02 11:57:00,
2013-03-02 07:02:00,30.2,24.2,29.81,NNW,340,0.0,2.0,78,0.00,BKN,BKN,0.00,WeatherDisplay:10.34,2013-03-02 12:02:00,
2013-03-02 07:07:00,30.2,24.2,29.81,WNW,282,3.0,6.0,78,0.00,BKN,BKN,0.00,WeatherDisplay:10.34,2013-03-02 12:07:00,
2013-03-02 07:13:00,30.4,24.3,29.81,WNW,282,0.0,0.0,78,0.00,BKN,BKN,0.00,WeatherDisplay:10.34,2013-03-02 12:13:00,
2013-03-02 07:18:00,30.4,24.3,29.81,WNW,282,0.0,3.0,78,0.00,BKN,BKN,0.00,WeatherDisplay:10.34,2013-03-02 12:18:00,
2013-03-02 07:23:00,30.6,24.5,29.81,West,281,0.0,3.0,78,0.00,BKN,BKN,0.00,WeatherDisplay:10.34,2013-03-02 12:23:00,
2013-03-02 07:28:00,30.6,24.5,29.81,West,281,0.0,0.0,78,0.00,BKN,BKN,0.00,WeatherDisplay:10.34,2013-03-02 12:28:00,
2013-03-02 07:33:00,30.7,24.7,29.81,West,281,3.0,3.0,78,0.00,BKN,BKN,0.00,WeatherDisplay:10.34,2013-03-02 12:33:00,
2013-03-02 07:38:00,30.9,24.9,29.81,West,281,0.0,0.0,78,0.00,BKN,BKN,0.00,WeatherDisplay:10.34,2013-03-02 12:38:00,
2013-03-02 07:43:00,31.1,24.7,29.81,West,280,3.0,5.0,77,0.00,BKN,BKN,0.00,WeatherDisplay:10.34,2013-03-02 12:43:00,
2013-03-02 07:48:00,31.3,24.9,29.81,West,280,4.0,6.0,77,0.00,BKN,BKN,0.00,WeatherDisplay:10.34,2013-03-02 12:48:00,
2013-03-02 07:53:00,31.3,24.9,29.81,West,280,0.0,0.0,77,0.00,BKN,BKN,0.00,WeatherDisplay:10.34,2013-03-02 12:53:00,
2013-03-02 07:58:00,31.5,24.8,29.81,West,280,0.0,0.0,76,0.00,BKN,BKN,0.00,WeatherDisplay:10.34,2013-03-02 12:58:00,
2013-03-02 08:03:00,31.8,25.1,29.81,West,280,0.0,0.0,76,0.00,OVC,OVC,0.00,WeatherDisplay:10.34,2013-03-02 13:03:00,
2013-03-02 08:08:00,31.8,25.1,29.81,West,279,3.0,3.0,76,0.00,OVC,OVC,0.00,WeatherDisplay:10.34,2013-03-02 13:08:00,
2013-03-02 08:13:00,32.0,25.3,29.81,West,279,0.0,0.0,76,0.00,OVC,OVC,0.00,WeatherDisplay:10.34,2013-03-02 13:13:00,
2013-03-02 08:18:00,32.4,25.3,29.81,West,279,0.0,0.0,75,0.00,OVC,OVC,0.00,WeatherDisplay:10.34,2013-03-02 13:18:00,
2013-03-02 08:23:00,32.5,25.5,29.81,West,279,0.0,0.0,75,0.00,OVC,OVC,0.00,WeatherDisplay:10.34,2013-03-02 13:23:00,
2013-03-02 08:28:00,32.9,25.8,29.81,West,279,0.0,0.0,75,0.00,OVC,OVC,0.00,WeatherDisplay:10.34,2013-03-02 13:28:00,
2013-03-02 08:33:00,33.3,25.9,29.81,NNW,344,0.0,3.0,74,0.00,OVC,OVC,0.00,WeatherDisplay:10.34,2013-03-02 13:33:00,
2013-03-02 08:38:00,33.4,26.0,29.81,NNW,344,0.0,0.0,74,0.00,OVC,OVC,0.00,WeatherDisplay:10.34,2013-03-02 13:38:00,
2013-03-02 08:43:00,33.8,26.1,29.81,NNW,344,0.0,0.0,73,0.00,OVC,OVC,0.00,WeatherDisplay:10.34,2013-03-02 13:43:00,
2013-03-02 08:48:00,33.8,25.0,29.81,North,356,4.0,6.0,70,0.00,OVC,OVC,0.00,WeatherDisplay:10.34,2013-03-02 13:48:00,
2013-03-02 08:53:00,33.8,24.4,29.81,NNW,342,0.0,0.0,68,0.00,OVC,OVC,0.00,WeatherDisplay:10.34,2013-03-02 13:53:00,
2013-03-02 08:58:00,33.8,23.3,29.81,North,3,3.0,3.0,65,0.00,OVC,OVC,0.00,WeatherDisplay:10.34,2013-03-02 13:58:00,
2013-03-02 09:03:00,34.0,22.3,29.81,NNW,327,3.0,3.0,62,0.00,OVC,OVC,0.00,WeatherDisplay:10.34,2013-03-02 14:03:00,
2013-03-02 09:08:00,34.2,21.7,29.81,NNW,340,4.0,5.0,60,0.00,OVC,OVC,0.00,WeatherDisplay:10.34,2013-03-02 14:08:00,
2013-03-02 09:13:00,34.3,21.1,29.81,NNE,19,0.0,3.0,58,0.00,OVC,OVC,0.00,WeatherDisplay:10.34,2013-03-02 14:13:00,
2013-03-02 09:18:00,34.5,21.7,29.81,NNE,21,3.0,3.0,59,0.00,OVC,OVC,0.00,WeatherDisplay:10.34,2013-03-02 14:18:00,
2013-03-02 09:23:00,34.9,21.2,29.81,North,351,0.0,0.0,57,0.00,OVC,OVC,0.00,WeatherDisplay:10.34,2013-03-02 14:23:00,
2013-03-02 09:28:00,35.1,20.9,29.81,North,1,4.0,6.0,56,0.00,OVC,OVC,0.00,WeatherDisplay:10.34,2013-03-02 14:28:00,
2013-03-02 09:33:00,35.1,20.9,29.81,NNE,32,0.0,0.0,56,0.00,OVC,OVC,0.00,WeatherDisplay:10.34,2013-03-02 14:33:00,
2013-03-02 09:38:00,35.1,20.9,29.81,NNE,32,4.0,5.0,56,0.00,OVC,OVC,0.00,WeatherDisplay:10.34,2013-03-02 14:38:00,
2013-03-02 09:43:00,35.1,20.1,29.81,ENE,65,3.0,6.0,54,0.00,OVC,OVC,0.00,WeatherDisplay:10.34,2013-03-02 14:43:00,
2013-03-02 09:48:00,35.1,19.6,29.81,NNE,21,0.0,5.0,53,0.00,OVC,OVC,0.00,WeatherDisplay:10.34,2013-03-02 14:48:00,
2013-03-02 09:53:00,35.2,19.8,29.81,NE,37,0.0,3.0,53,0.00,OVC,OVC,0.00,WeatherDisplay:10.34,2013-03-02 14:53:00,
2013-03-02 09:58:00,35.4,19.5,29.81,NW,322,3.0,6.0,52,0.00,OVC,OVC,0.00,WeatherDisplay:10.34,2013-03-02 14:58:00,
2013-03-02 10:03:00,35.6,20.1,29.81,North,356,0.0,0.0,53,0.00,OVC,OVC,0.00,WeatherDisplay:10.34,2013-03-02 15:03:00,
2013-03-02 10:08:00,35.8,19.9,29.81,NE,55,3.0,6.0,52,0.00,OVC,OVC,0.00,WeatherDisplay:10.34,2013-03-02 15:08:00,
2013-03-02 10:13:00,35.8,19.9,29.81,NNE,25,4.0,5.0,52,0.00,OVC,OVC,0.00,WeatherDisplay:10.34,2013-03-02 15:13:00,
2013-03-02 10:18:00,35.8,19.9,29.81,NNE,25,0.0,3.0,52,0.00,OVC,OVC,0.00,WeatherDisplay:10.34,2013-03-02 15:18:00,
2013-03-02 10:23:00,36.1,19.7,29.81,ENE,58,3.0,5.0,51,0.00,OVC,OVC,0.00,WeatherDisplay:10.34,2013-03-02 15:23:00,
2013-03-02 10:28:00,36.5,19.6,29.81,ENE,78,3.0,5.0,50,0.00,OVC,OVC,0.00,WeatherDisplay:10.34,2013-03-02 15:28:00,
2013-03-02 10:33:00,36.9,19.5,29.81,ENE,66,3.0,3.0,49,0.00,OVC,OVC,0.00,WeatherDisplay:10.34,2013-03-02 15:33:00,
2013-03-02 10:39:00,37.0,19.6,29.81,NE,37,0.0,5.0,49,0.00,OVC,OVC,0.00,WeatherDisplay:10.34,2013-03-02 15:39:00,
2013-03-02 10:44:00,37.4,20.0,29.81,ESE,110,4.0,6.0,49,0.00,OVC,OVC,0.00,WeatherDisplay:10.34,2013-03-02 15:44:00,
2013-03-02 10:49:00,37.6,19.6,29.81,NNE,25,0.0,7.0,48,0.00,OVC,OVC,0.00,WeatherDisplay:10.34,2013-03-02 15:49:00,
2013-03-02 10:54:00,37.8,19.8,29.81,NNW,342,4.0,6.0,48,0.00,OVC,OVC,0.00,WeatherDisplay:10.34,2013-03-02 15:54:00,
2013-03-02 10:59:00,37.8,19.8,29.81,SW,222,3.0,5.0,48,0.00,OVC,OVC,0.00,WeatherDisplay:10.34,2013-03-02 15:59:00,
2013-03-02 11:04:00,37.9,19.0,29.81,WSW,251,4.0,6.0,46,0.00,SCT,SCT,0.00,WeatherDisplay:10.34,2013-03-02 16:04:00,
2013-03-02 11:09:00,38.1,19.1,29.81,NE,40,4.0,6.0,46,0.00,SCT,SCT,0.00,WeatherDisplay:10.34,2013-03-02 16:09:00,
2013-03-02 11:14:00,38.1,19.1,29.81,NNE,18,3.0,5.0,46,0.00,SCT,SCT,0.00,WeatherDisplay:10.34,2013-03-02 16:14:00,
2013-03-02 11:19:00,38.5,19.0,29.81,West,263,4.0,13.0,45,0.00,SCT,SCT,0.00,WeatherDisplay:10.34,2013-03-02 16:19:00,
2013-03-02 11:24:00,38.5,19.0,29.81,West,276,0.0,3.0,45,0.00,SCT,SCT,0.00,WeatherDisplay:10.34,2013-03-02 16:24:00,
2013-03-02 11:29:00,38.5,19.5,29.81,West,276,4.0,7.0,46,0.00,SCT,SCT,0.00,WeatherDisplay:10.34,2013-03-02 16:29:00,
2013-03-02 11:34:00,38.7,19.1,29.81,North,351,4.0,5.0,45,0.00,SCT,SCT,0.00,WeatherDisplay:10.34,2013-03-02 16:34:00,
2013-03-02 11:39:00,38.7,19.1,29.81,North,7,5.0,12.0,45,0.00,SCT,SCT,0.00,WeatherDisplay:10.34,2013-03-02 16:39:00,
2013-03-02 11:44:00,38.7,19.6,29.81,North,4,3.0,5.0,46,0.00,SCT,SCT,0.00,WeatherDisplay:10.34,2013-03-02 16:44:00,
2013-03-02 11:49:00,38.8,19.3,29.81,North,6,0.0,2.0,45,0.00,SCT,SCT,0.00,WeatherDisplay:10.34,2013-03-02 16:49:00,
2013-03-02 11:54:00,38.7,18.6,29.81,West,268,4.0,8.0,44,0.00,SCT,SCT,0.00,WeatherDisplay:10.34,2013-03-02 16:54:00,
2013-03-02 11:59:00,38.5,18.4,29.77,West,261,0.0,3.0,44,0.00,SCT,SCT,0.00,WeatherDisplay:10.34,2013-03-02 16:59:00,
2013-03-02 12:04:00,38.5,19.0,29.77,West,259,3.0,7.0,45,0.00,BKN,BKN,0.00,WeatherDisplay:10.34,2013-03-02 17:04:00,
2013-03-02 12:09:00,38.7,19.1,29.77,West,259,0.0,2.0,45,0.00,BKN,BKN,0.00,WeatherDisplay:10.34,2013-03-02 17:09:00,
2013-03-02 12:14:00,38.7,19.6,29.77,West,259,0.0,3.0,46,0.00,BKN,BKN,0.00,WeatherDisplay:10.34,2013-03-02 17:14:00,
2013-03-02 12:19:00,38.8,20.3,29.77,West,259,0.0,0.0,47,0.00,BKN,BKN,0.00,WeatherDisplay:10.34,2013-03-02 17:19:00,
2013-03-02 12:24:00,39.0,20.0,29.77,NE,38,6.0,9.0,46,0.00,BKN,BKN,0.00,WeatherDisplay:10.34,2013-03-02 17:24:00,
2013-03-02 12:29:00,39.0,20.0,29.77,NNE,22,0.0,6.0,46,0.00,BKN,BKN,0.00,WeatherDisplay:10.34,2013-03-02 17:29:00,
2013-03-02 12:34:00,38.8,19.3,29.77,SW,222,5.0,10.0,45,0.00,BKN,BKN,0.00,WeatherDisplay:10.34,2013-03-02 17:34:00,
2013-03-02 12:39:00,38.8,19.3,29.77,SSW,205,0.0,0.0,45,0.00,BKN,BKN,0.00,WeatherDisplay:10.34,2013-03-02 17:39:00,
2013-03-02 12:44:00,38.8,19.3,29.77,SW,229,0.0,5.0,45,0.00,BKN,BKN,0.00,WeatherDisplay:10.34,2013-03-02 17:44:00,
2013-03-02 12:49:00,38.8,19.8,29.77,WNW,284,5.0,12.0,46,0.00,BKN,BKN,0.00,WeatherDisplay:10.34,2013-03-02 17:49:00,
2013-03-02 12:54:00,38.7,19.1,29.77,NNW,334,0.0,5.0,45,0.00,BKN,BKN,0.00,WeatherDisplay:10.34,2013-03-02 17:54:00,
2013-03-02 12:59:00,38.8,19.8,29.77,SW,230,5.0,9.0,46,0.00,BKN,BKN,0.00,WeatherDisplay:10.34,2013-03-02 17:59:00,
2013-03-02 13:04:00,38.8,19.3,29.77,SW,223,5.0,9.0,45,0.00,OVC,OVC,0.00,WeatherDisplay:10.34,2013-03-02 18:04:00,
2013-03-02 15:14:00,38.3,19.8,29.77,NNE,23,0.0,3.0,47,0.00,OVC,OVC,0.00,WeatherDisplay:10.34,2013-03-02 20:14:00,
2013-03-02 15:19:00,38.5,20.0,29.77,NW,323,3.0,3.0,47,0.00,OVC,OVC,0.00,WeatherDisplay:10.34,2013-03-02 20:19:00,
2013-03-02 15:24:00,38.5,19.5,29.77,North,351,3.0,14.0,46,0.00,OVC,OVC,0.00,WeatherDisplay:10.34,2013-03-02 20:24:00,
2013-03-02 15:29:00,38.5,19.0,29.77,NE,45,4.0,7.0,45,0.00,OVC,OVC,0.00,WeatherDisplay:10.34,2013-03-02 20:29:00,
2013-03-02 15:34:00,38.3,19.3,29.77,NE,34,8.0,14.0,46,0.00,OVC,OVC,0.00,WeatherDisplay:10.34,2013-03-02 20:34:00,
2013-03-02 15:39:00,38.1,19.1,29.77,NNW,341,0.0,2.0,46,0.00,OVC,OVC,0.00,WeatherDisplay:10.34,2013-03-02 20:39:00,
2013-03-02 15:44:00,37.9,19.0,29.77,NE,51,4.0,6.0,46,0.00,OVC,OVC,0.00,WeatherDisplay:10.34,2013-03-02 20:44:00,
2013-03-02 15:49:00,37.9,19.5,29.77,NNE,23,8.0,12.0,47,0.00,OVC,OVC,0.00,WeatherDisplay:10.34,2013-03-02 20:49:00,
2013-03-02 15:54:00,37.9,19.0,29.78,NNE,20,5.0,12.0,46,0.00,OVC,OVC,0.00,WeatherDisplay:10.34,2013-03-02 20:54:00,
2013-03-02 15:59:00,37.8,18.3,29.78,NNE,27,4.0,7.0,45,0.00,OVC,OVC,0.00,WeatherDisplay:10.34,2013-03-02 20:59:00,
2013-03-02 16:04:00,37.6,18.1,29.78,North,9,6.0,12.0,45,0.00,OVC,OVC,0.00,WeatherDisplay:10.34,2013-03-02 21:04:00,
2013-03-02 16:09:00,37.6,18.6,29.78,NE,34,4.0,8.0,46,0.00,OVC,OVC,0.00,WeatherDisplay:10.34,2013-03-02 21:09:00,
2013-03-02 16:14:00,37.4,18.0,29.78,NNE,15,3.0,5.0,45,0.00,OVC,OVC,0.00,WeatherDisplay:10.34,2013-03-02 21:14:00,
2013-03-02 16:19:00,37.2,18.3,29.78,NE,47,0.0,0.0,46,0.00,OVC,OVC,0.00,WeatherDisplay:10.34,2013-03-02 21:19:00,
2013-03-02 16:24:00,37.0,18.1,29.78,NE,55,5.0,7.0,46,0.00,OVC,OVC,0.00,WeatherDisplay:10.34,2013-03-02 21:24:00,
2013-03-02 16:29:00,36.9,18.0,29.78,NNE,15,0.0,2.0,46,0.00,OVC,OVC,0.00,WeatherDisplay:10.34,2013-03-02 21:29:00,
2013-03-02 16:34:00,36.5,18.2,29.78,ENE,70,4.0,6.0,47,0.00,OVC,OVC,0.00,WeatherDisplay:10.34,2013-03-02 21:34:00,
2013-03-02 16:39:00,36.1,17.8,29.78,East,86,3.0,6.0,47,0.00,OVC,OVC,0.00,WeatherDisplay:10.34,2013-03-02 21:39:00,
2013-03-02 16:44:00,36.0,17.7,29.78,NE,41,0.0,3.0,47,0.00,OVC,OVC,0.00,WeatherDisplay:10.34,2013-03-02 21:44:00,
2013-03-02 16:49:00,35.8,18.0,29.78,North,11,4.0,7.0,48,0.00,OVC,OVC,0.00,WeatherDisplay:10.34,2013-03-02 21:49:00,
2013-03-02 16:54:00,35.6,18.3,29.78,ENE,63,0.0,0.0,49,0.00,OVC,OVC,0.00,WeatherDisplay:10.34,2013-03-02 21:54:00,
2013-03-02 16:59:00,35.8,18.5,29.78,ENE,63,0.0,2.0,49,0.00,OVC,OVC,0.00,WeatherDisplay:10.34,2013-03-02 21:59:00,
2013-03-02 17:04:00,35.6,18.8,29.78,NE,34,0.0,0.0,50,0.00,OVC,OVC,0.00,WeatherDisplay:10.34,2013-03-02 22:04:00,
2013-03-02 17:09:00,35.6,18.8,29.78,ENE,62,0.0,5.0,50,0.00,OVC,OVC,0.00,WeatherDisplay:10.34,2013-03-02 22:09:00,
2013-03-02 17:14:00,35.4,18.6,29.81,ENE,62,0.0,0.0,50,0.00,OVC,OVC,0.00,WeatherDisplay:10.34,2013-03-02 22:14:00,
2013-03-02 17:19:00,35.4,18.6,29.81,NNE,25,0.0,0.0,50,0.00,OVC,OVC,0.00,WeatherDisplay:10.34,2013-03-02 22:19:00,
2013-03-02 17:24:00,35.2,18.9,29.81,NE,42,3.0,6.0,51,0.00,OVC,OVC,0.00,WeatherDisplay:10.34,2013-03-02 22:24:00,
2013-03-02 17:29:00,35.1,18.7,29.81,NNE,15,3.0,3.0,51,0.00,OVC,OVC,0.00,WeatherDisplay:10.34,2013-03-02 22:29:00,
2013-03-02 17:34:00,34.5,18.7,29.81,ENE,67,4.0,6.0,52,0.00,OVC,OVC,0.00,WeatherDisplay:10.34,2013-03-02 22:34:00,
2013-03-02 17:39:00,34.2,18.8,29.81,NE,41,3.0,3.0,53,0.00,OVC,OVC,0.00,WeatherDisplay:10.34,2013-03-02 22:39:00,
2013-03-02 17:44:00,34.0,19.1,29.81,NNE,30,3.0,3.0,54,0.00,OVC,OVC,0.00,WeatherDisplay:10.34,2013-03-02 22:44:00,
2013-03-02 17:49:00,34.0,19.9,29.81,NNE,27,0.0,3.0,56,0.00,OVC,OVC,0.00,WeatherDisplay:10.34,2013-03-02 22:49:00,
2013-03-02 17:54:00,33.6,19.6,29.81,North,0,3.0,6.0,56,0.00,OVC,OVC,0.00,WeatherDisplay:10.34,2013-03-02 22:54:00,
2013-03-02 17:59:00,33.6,20.0,29.81,NNE,33,3.0,7.0,57,0.00,OVC,OVC,0.00,WeatherDisplay:10.34,2013-03-02 22:59:00,
2013-03-02 18:04:00,33.4,20.2,29.81,NNE,33,0.0,3.0,58,0.00,OVC,OVC,0.00,WeatherDisplay:10.34,2013-03-02 23:04:00,
2013-03-02 18:09:00,33.3,20.5,29.81,NNE,17,0.0,3.0,59,0.00,OVC,OVC,0.00,WeatherDisplay:10.34,2013-03-02 23:09:00,
2013-03-02 18:14:00,33.3,20.5,29.81,NNE,18,3.0,6.0,59,0.00,OVC,OVC,0.00,WeatherDisplay:10.34,2013-03-02 23:14:00,
2013-03-02 18:19:00,33.3,20.9,29.81,NE,41,0.0,2.0,60,0.00,OVC,OVC,0.00,WeatherDisplay:10.34,2013-03-02 23:19:00,
2013-03-02 18:24:00,33.1,20.7,29.82,North,9,0.0,3.0,60,0.00,OVC,OVC,0.00,WeatherDisplay:10.34,2013-03-02 23:24:00,
2013-03-02 18:29:00,32.7,21.1,29.82,NNE,17,4.0,6.0,62,0.00,OVC,OVC,0.00,WeatherDisplay:10.34,2013-03-02 23:29:00,
2013-03-02 18:34:00,32.5,21.3,29.82,ENE,64,0.0,2.0,63,0.00,OVC,OVC,0.00,WeatherDisplay:10.34,2013-03-02 23:34:00,
2013-03-02 18:39:00,32.4,21.5,29.82,NE,56,3.0,5.0,64,0.00,OVC,OVC,0.00,WeatherDisplay:10.34,2013-03-02 23:39:00,
2013-03-02 18:44:00,32.4,21.9,29.82,ENE,58,0.0,3.0,65,0.00,OVC,OVC,0.00,WeatherDisplay:10.34,2013-03-02 23:44:00,
2013-03-02 18:49:00,32.2,22.1,29.82,ENE,67,4.0,5.0,66,0.00,OVC,OVC,0.00,WeatherDisplay:10.34,2013-03-02 23:49:00,
2013-03-02 18:54:00,32.2,22.4,29.82,NE,38,3.0,5.0,67,0.00,OVC,OVC,0.00,WeatherDisplay:10.34,2013-03-02 23:54:00,
2013-03-02 18:59:00,32.2,22.8,29.82,NNE,29,3.0,3.0,68,0.00,OVC,OVC,0.00,WeatherDisplay:10.34,2013-03-02 23:59:00,
2013-03-02 19:04:00,32.0,22.6,29.82,NNE,30,4.0,7.0,68,0.00,OVC,OVC,0.00,WeatherDisplay:10.34,2013-03-03 00:04:00,
2013-03-02 19:09:00,31.8,22.8,29.82,North,351,4.0,10.0,69,0.00,OVC,OVC,0.00,WeatherDisplay:10.34,2013-03-03 00:09:00,
2013-03-02 19:14:00,31.6,22.6,29.82,ENE,58,4.0,7.0,69,0.00,OVC,OVC,0.00,WeatherDisplay:10.34,2013-03-03 00:14:00,
2013-03-02 19:19:00,31.5,22.8,29.82,NNE,33,0.0,3.0,70,0.00,OVC,OVC,0.00,WeatherDisplay:10.34,2013-03-03 00:19:00,
2013-03-02 19:24:00,31.5,23.1,29.82,NNE,24,0.0,0.0,71,0.00,OVC,OVC,0.00,WeatherDisplay:10.34,2013-03-03 00:24:00,
2013-03-02 19:29:00,31.3,23.0,29.82,NNE,22,0.0,2.0,71,0.00,OVC,OVC,0.00,WeatherDisplay:10.34,2013-03-03 00:29:00,
2013-03-02 19:34:00,31.3,23.0,29.82,NNE,22,0.0,0.0,71,0.00,OVC,OVC,0.00,WeatherDisplay:10.34,2013-03-03 00:34:00,
2013-03-02 19:39:00,31.3,23.3,29.82,North,351,3.0,5.0,72,0.00,OVC,OVC,0.00,WeatherDisplay:10.34,2013-03-03 00:39:00,
2013-03-02 19:44:00,31.3,23.3,29.82,East,92,0.0,6.0,72,0.00,OVC,OVC,0.00,WeatherDisplay:10.34,2013-03-03 00:44:00,
2013-03-02 19:49:00,31.3,23.6,29.82,ENE,62,0.0,3.0,73,0.00,OVC,OVC,0.00,WeatherDisplay:10.34,2013-03-03 00:49:00,
2013-03-02 19:54:00,31.1,23.5,29.82,NE,54,0.0,3.0,73,0.00,OVC,OVC,0.00,WeatherDisplay:10.34,2013-03-03 00:54:00,
2013-03-02 19:59:00,31.1,23.8,29.82,NE,54,0.0,3.0,74,0.00,OVC,OVC,0.00,WeatherDisplay:10.34,2013-03-03 00:59:00,
2013-03-02 20:04:00,31.3,24.0,29.82,North,5,0.0,3.0,74,0.00,OVC,OVC,0.00,WeatherDisplay:10.34,2013-03-03 01:04:00,
2013-03-02 20:09:00,31.3,24.0,29.82,North,3,0.0,0.0,74,0.00,OVC,OVC,0.00,WeatherDisplay:10.34,2013-03-03 01:09:00,
2013-03-02 20:14:00,31.5,24.4,29.82,North,3,0.0,0.0,75,0.00,OVC,OVC,0.00,WeatherDisplay:10.34,2013-03-03 01:14:00,
2013-03-02 20:19:00,31.3,24.0,29.82,NNE,16,0.0,2.0,74,0.00,OVC,OVC,0.00,WeatherDisplay:10.34,2013-03-03 01:19:00,
2013-03-02 20:24:00,31.3,24.3,29.82,NNE,16,0.0,3.0,75,0.00,OVC,OVC,0.00,WeatherDisplay:10.34,2013-03-03 01:24:00,
2013-03-02 20:29:00,31.5,24.4,29.82,NNE,16,0.0,3.0,75,0.00,OVC,OVC,0.00,WeatherDisplay:10.34,2013-03-03 01:29:00,
2013-03-02 20:34:00,31.6,24.6,29.82,NNE,16,0.0,0.0,75,0.00,OVC,OVC,0.00,WeatherDisplay:10.34,2013-03-03 01:34:00,
2013-03-02 20:40:00,31.6,24.6,29.82,NNE,16,0.0,0.0,75,0.00,OVC,OVC,0.00,WeatherDisplay:10.34,2013-03-03 01:40:00,
2013-03-02 20:45:00,31.5,24.4,29.82,NNE,16,0.0,0.0,75,0.00,OVC,OVC,0.00,WeatherDisplay:10.34,2013-03-03 01:45:00,
2013-03-02 20:50:00,31.5,24.4,29.82,NNE,16,0.0,0.0,75,0.00,OVC,OVC,0.00,WeatherDisplay:10.34,2013-03-03 01:50:00,
2013-03-02 20:55:00,31.5,24.4,29.82,NNE,16,0.0,0.0,75,0.00,OVC,OVC,0.00,WeatherDisplay:10.34,2013-03-03 01:55:00,
2013-03-02 21:00:00,31.3,24.3,29.82,NNE,16,0.0,0.0,75,0.00,OVC,OVC,0.00,WeatherDisplay:10.34,2013-03-03 02:00:00,
2013-03-02 21:05:00,31.3,24.3,29.82,North,9,0.0,0.0,75,0.00,OVC,OVC,0.00,WeatherDisplay:10.34,2013-03-03 02:05:00,
2013-03-02 21:10:00,31.5,24.8,29.82,North,9,0.0,0.0,76,0.00,OVC,OVC,0.00,WeatherDisplay:10.34,2013-03-03 02:10:00,
2013-03-02 21:16:00,31.5,24.8,29.82,North,9,0.0,0.0,76,0.00,OVC,OVC,0.00,WeatherDisplay:10.34,2013-03-03 02:16:00,
2013-03-02 21:21:00,31.6,24.9,29.82,North,9,0.0,0.0,76,0.00,OVC,OVC,0.00,WeatherDisplay:10.34,2013-03-03 02:21:00,
2013-03-02 21:26:00,31.6,24.9,29.82,North,9,0.0,0.0,76,0.00,OVC,OVC,0.00,WeatherDisplay:10.34,2013-03-03 02:26:00,
2013-03-02 21:31:00,31.8,25.4,29.82,North,8,0.0,0.0,77,0.00,OVC,OVC,0.00,WeatherDisplay:10.34,2013-03-03 02:31:00,
2013-03-02 21:36:00,31.8,25.4,29.82,North,9,0.0,0.0,77,0.00,OVC,OVC,0.00,WeatherDisplay:10.34,2013-03-03 02:36:00,
2013-03-02 21:41:00,32.0,25.6,29.82,North,8,0.0,0.0,77,0.00,OVC,OVC,0.00,WeatherDisplay:10.34,2013-03-03 02:41:00,
2013-03-02 21:46:00,32.0,25.6,29.82,North,9,0.0,0.0,77,0.00,OVC,OVC,0.00,WeatherDisplay:10.34,2013-03-03 02:46:00,
2013-03-02 21:52:00,32.0,25.6,29.82,North,9,0.0,0.0,77,0.00,OVC,OVC,0.00,WeatherDisplay:10.34,2013-03-03 02:52:00,
2013-03-02 21:57:00,31.6,24.9,29.82,WNW,290,0.0,2.0,76,0.00,OVC,OVC,0.00,WeatherDisplay:10.34,2013-03-03 02:57:00,
2013-03-02 22:03:00,31.8,25.1,29.82,WNW,290,0.0,0.0,76,0.00,OVC,OVC,0.00,WeatherDisplay:10.34,2013-03-03 03:03:00,
2013-03-02 22:08:00,31.8,25.1,29.81,WNW,290,0.0,0.0,76,0.00,OVC,OVC,0.00,WeatherDisplay:10.34,2013-03-03 03:08:00,
2013-03-02 22:13:00,31.8,25.4,29.81,WNW,290,0.0,0.0,77,0.00,OVC,OVC,0.00,WeatherDisplay:10.34,2013-03-03 03:13:00,
2013-03-02 22:18:00,31.8,25.4,29.81,WNW,290,0.0,0.0,77,0.00,OVC,OVC,0.00,WeatherDisplay:10.34,2013-03-03 03:18:00,
2013-03-02 22:23:00,32.0,25.6,29.81,WNW,290,0.0,0.0,77,0.00,OVC,OVC,0.00,WeatherDisplay:10.34,2013-03-03 03:23:00,
2013-03-02 22:28:00,32.0,25.6,29.81,WNW,290,0.0,0.0,77,0.00,OVC,OVC,0.00,WeatherDisplay:10.34,2013-03-03 03:28:00,
2013-03-02 22:33:00,32.0,25.6,29.81,WNW,290,0.0,0.0,77,0.00,OVC,OVC,0.00,WeatherDisplay:10.34,2013-03-03 03:33:00,
2013-03-02 22:38:00,32.0,25.6,29.81,WNW,290,0.0,0.0,77,0.00,OVC,OVC,0.00,WeatherDisplay:10.34,2013-03-03 03:38:00,
2013-03-02 22:43:00,32.0,25.9,29.81,WNW,290,0.0,0.0,78,0.00,OVC,OVC,0.00,WeatherDisplay:10.34,2013-03-03 03:43:00,
2013-03-02 22:48:00,31.8,25.4,29.81,WNW,290,0.0,0.0,77,0.00,OVC,OVC,0.00,WeatherDisplay:10.34,2013-03-03 03:48:00,
2013-03-02 22:53:00,31.8,25.7,29.81,WNW,290,0.0,0.0,78,0.00,OVC,OVC,0.00,WeatherDisplay:10.34,2013-03-03 03:53:00,
2013-03-02 22:58:00,31.8,25.7,29.81,WNW,290,0.0,0.0,78,0.00,OVC,OVC,0.00,WeatherDisplay:10.34,2013-03-03 03:58:00,
2013-03-02 23:03:00,31.8,25.7,29.81,WNW,290,0.0,0.0,78,0.00,OVC,OVC,0.00,WeatherDisplay:10.34,2013-03-03 04:03:00,
2013-03-02 23:08:00,31.8,25.7,29.81,WNW,290,0.0,0.0,78,0.00,OVC,OVC,0.00,WeatherDisplay:10.34,2013-03-03 04:08:00,
2013-03-02 23:13:00,31.6,25.6,29.81,WNW,290,0.0,0.0,78,0.00,OVC,OVC,0.00,WeatherDisplay:10.34,2013-03-03 04:13:00,
2013-03-02 23:18:00,31.8,25.7,29.81,WNW,289,0.0,0.0,78,0.00,OVC,OVC,0.00,WeatherDisplay:10.34,2013-03-03 04:18:00,
2013-03-02 23:23:00,31.8,25.7,29.81,WNW,290,0.0,0.0,78,0.00,OVC,OVC,0.00,WeatherDisplay:10.34,2013-03-03 04:23:00,
2013-03-02 23:28:00,31.6,25.6,29.81,WNW,290,0.0,0.0,78,0.00,OVC,OVC,0.00,WeatherDisplay:10.34,2013-03-03 04:28:00,
2013-03-02 23:33:00,31.5,25.4,29.81,WNW,289,0.0,0.0,78,0.00,OVC,OVC,0.00,WeatherDisplay:10.34,2013-03-03 04:33:00,
2013-03-02 23:38:00,31.3,25.2,29.81,WNW,290,0.0,0.0,78,0.00,OVC,OVC,0.00,WeatherDisplay:10.34,2013-03-03 04:38:00,
2013-03-02 23:43:00,31.5,25.4,29.81,WNW,290,0.0,0.0,78,0.00,OVC,OVC,0.00,WeatherDisplay:10.34,2013-03-03 04:43:00,
2013-03-02 23:48:00,31.3,25.2,29.81,WNW,290,0.0,0.0,78,0.00,OVC,OVC,0.00,WeatherDisplay:10.34,2013-03-03 04:48:00,
2013-03-02 23:53:00,31.3,25.2,29.81,WNW,290,0.0,0.0,78,0.00,OVC,OVC,0.00,WeatherDisplay:10.34,2013-03-03 04:53:00,
2013-03-02 23:58:00,31.3,25.2,29.81,WNW,290,0.0,0.0,78,0.00,OVC,OVC,0.00,WeatherDisplay:10.34,2013-03-03 04:58:00,